[[{"header":{"parameterUnit":"m.s-1","parameterCategory":2,"la1":30.2991,"la2":30.254,"lo1":-89.0895,"lo2":-89.0444,"dy":0.0017,"dx":0.0017,"nx":28,"ny":28,"refTime":"2025-01-27T03:00:00:Z","depth":"0","parameterNumber":2,"parameterNumberName":"U-component_of_CURRENTS"},"data":[0,0,0,0,0,0,0,0,0,0,0,0,0,0,0,0,0,0,0,0,0,0,0,0,0,0,0,0,0,0,0,0,0,0,0,0,0,0,0,0,0,0,0,0,0,0,0,0,0,0,0,0,0,0,0,0,0,0,0.3727,0.3727,0,0.3786,0.3786,0.3787,0.3793,0.3792,0.3792,0.3791,0.3781,0.3781,0.3781,0,0,0,0,0,0,0,0,0,0,0,0,0,0.3617,0.3619,0.3727,0.3727,0.3728,0.3785,0.3786,0.3787,0.3793,0.3792,0.3792,0.3791,0.3781,0.3781,0.3781,0,0,0,0,0,0,0,0,0,0,0,0,0,0.3669,0.362,0.3726,0.3738,0.374,0.3785,0.3786,0.3787,0.3793,0.3792,0.3791,0.3791,0.3781,0.3781,0.3781,0.3801,0,0,0.3783,0.3783,0,0,0,0,0,0,0,0,0.3666,0.3673,0.3736,0.3738,0.374,0.3781,0.3744,0.3788,0.3793,0.3772,0.3791,0.379,0.3775,0.3776,0.379,0.38,0.38,0.3783,0.3783,0.3783,0.3783,0,0,0,0,0,0,0,0.3662,0.367,0.3749,0.3737,0.3739,0.374,0.3746,0.3753,0.3776,0.3774,0.3775,0.3782,0.3776,0.3789,0.3789,0.38,0.3783,0.3783,0.3783,0.3783,0.3854,0.3856,0,0,0,0,0,0,0.3657,0.3667,0.3748,0.3751,0.37,0.3743,0.375,0.3768,0.3778,0.3779,0.3783,0.3783,0.3789,0.3789,0.3789,0.3833,0.3783,0.3783,0.3784,0.3853,0.3855,0.3857,0,0,0,0,0,0,0.3655,0.3664,0.3745,0.371,0.372,0.3746,0.3766,0.377,0.379,0.3785,0.3785,0.3799,0.3788,0.3788,0.3807,0.3831,0.3783,0.3784,0.3851,0.3853,0.3856,0.3906,0,0,0,0,0,0,0.3652,0.3664,0.3681,0.371,0.3722,0.3779,0.3767,0.3772,0.3795,0.3795,0.3799,0.3797,0.3788,0.3807,0.3807,0.3831,0.3784,0.3849,0.3852,0.3855,0.3903,0.391,0.3917,0,0,0,0,0,0.3648,0.3665,0.3682,0.3692,0.3744,0.378,0.3786,0.38,0.3797,0.3813,0.3818,0.3797,0.3827,0.3808,0.3809,0.3833,0.3847,0.3851,0.3855,0.3899,0.3909,0.3917,0,0,0,0,0,0,0.3613,0.3668,0.3687,0.3718,0.3753,0.3781,0.3792,0.3808,0.3828,0.3822,0.3817,0.3816,0.3855,0.3835,0.3815,0.3865,0.3835,0.3839,0.3869,0.3877,0.3884,0.3951,0.3784,0,0,0,0,0,0.362,0.3653,0.37,0.3724,0.3741,0.3772,0.3789,0.3804,0.3822,0.3831,0.3838,0.3845,0.3872,0.3865,0.3889,0.39,0.3968,0.3918,0.3925,0.3931,0.3987,0.4114,0.4139,0.3869,0.3869,0.3869,0,0,0.3608,0.3646,0.3662,0.372,0.3743,0.3777,0.378,0.3808,0.3844,0.3825,0.3866,0.3883,0.3889,0.3921,0.3932,0.3899,0.404,0.3936,0.3941,0.3995,0.4121,0.4148,0.4171,0.3871,0.3871,0.3871,0,0,0.3597,0.364,0.3663,0.37,0.3748,0.3779,0.3791,0.3834,0.386,0.3889,0.3913,0.3957,0.3945,0.3994,0.4004,0.4066,0.4094,0.4046,0.4111,0.4231,0.4256,0.4278,0.4385,0.4417,0.4023,0.4024,0.4024,0,0.3585,0.3634,0.3672,0.3705,0.3745,0.3781,0.382,0.3854,0.3901,0.3949,0.3898,0.3999,0.3994,0.4096,0.4113,0.4088,0.4155,0.4069,0.4244,0.4268,0.429,0.4395,0.4429,0.4026,0.4026,0.4026,0.4026,0,0.3593,0.3642,0.3654,0.3724,0.3765,0.3806,0.3864,0.3913,0.3933,0.398,0.408,0.4094,0.4167,0.4153,0.4141,0.43,0.4298,0.4259,0.4226,0.4321,0.4424,0.4459,0.4031,0.403,0.4029,0.4028,0,0,0.3558,0.3649,0.3656,0.372,0.3791,0.384,0.3901,0.4005,0.409,0.4111,0.4228,0.427,0.4315,0.4338,0.435,0.4429,0.4618,0.4405,0.441,0.4521,0.4895,0.4787,0.4815,0.4606,0.4612,0.4617,0.49,0,0.3567,0.3654,0.3684,0.3781,0.3851,0.3911,0.398,0.4074,0.4142,0.426,0.4316,0.4423,0.4372,0.4424,0.4506,0.4612,0.4716,0.4547,0.4782,0.479,0.4691,0.4854,0.4676,0.4905,0.4934,0.494,0.4944,0,0.3582,0.3655,0.3749,0.3886,0.3916,0.3965,0.4135,0.4199,0.4356,0.4408,0.4524,0.4588,0.4753,0.4668,0.4919,0.4813,0.4888,0.4936,0.4947,0.4868,0.4749,0.4818,0.4967,0.4799,0.4998,0.4994,0.499,0,0.3617,0.3713,0.3809,0.3851,0.3984,0.4043,0.411,0.4255,0.4343,0.4541,0.4625,0.4809,0.4909,0.5046,0.5133,0.5063,0.5384,0.5291,0.5276,0.5268,0.5181,0.5153,0.5209,0.5508,0.5507,0.5506,0.5505,0,0.3666,0.3755,0.3836,0.3904,0.4027,0.4089,0.4226,0.4328,0.4468,0.4581,0.4722,0.4845,0.501,0.5178,0.5246,0.5381,0.5489,0.5368,0.5363,0.5185,0.5156,0.5051,0.4981,0.5517,0.5514,0.5512,0.5511,0,0.3744,0.3781,0.3916,0.4031,0.406,0.416,0.4267,0.4339,0.4495,0.4651,0.4722,0.4939,0.5144,0.5294,0.5526,0.5516,0.5508,0.5669,0.544,0.5401,0.5167,0.5106,0.5085,0.4929,0.5728,0.5727,0.5727,0,0.3816,0.3881,0.4004,0.402,0.4072,0.418,0.4208,0.4349,0.4412,0.4679,0.4737,0.5007,0.5133,0.5443,0.5523,0.5686,0.5502,0.559,0.5417,0.5197,0.5129,0.4922,0.4776,0.5331,0.5328,0.5325,0.5322,0,0.3931,0.3955,0.4015,0.4053,0.408,0.4136,0.4195,0.4252,0.4394,0.4531,0.4678,0.4819,0.5125,0.5207,0.5434,0.5494,0.5304,0.5528,0.539,0.4927,0.4627,0.4456,0.509,0.5295,0.5298,0.53,0.5301,0.5303,0.3971,0.4,0.3995,0.403,0.4034,0.4011,0.401,0.4057,0.4137,0.426,0.4496,0.4639,0.4921,0.5197,0.5218,0.5137,0.5111,0.5005,0.4991,0.4831,0.4546,0.5106,0.5222,0.5224,0.5226,0.5227,0.5229,0,0.3939,0.3913,0.3938,0.3904,0.3842,0.3904,0.3904,0.3848,0.3843,0.4046,0.4163,0.4423,0.4568,0.4748,0.4814,0.4646,0.444,0.4516,0.4204,0.4115,0.4723,0.4562,0.4428,0.4428,0.4428,0.4428,0.4428,0.4428,0.3887,0.3835,0.3824,0.3682,0.3652,0.352,0.3491,0.3448,0.3533,0.3591,0.3719,0.3954,0.4261,0.4487,0.4362,0.4263,0.3913,0.3767,0.3726,0.4165,0.4207,0.4247,0.4077,0.3843,0.3843,0.2937,0.293,0.2925]},{"header":{"parameterUnit":"m.s-1","parameterCategory":2,"la1":30.2991,"la2":30.254,"lo1":-89.0895,"lo2":-89.0444,"dy":0.0017,"dx":0.0017,"nx":28,"ny":28,"refTime":"2025-01-27T03:00:00:Z","depth":"0","parameterNumber":3,"parameterNumberName":"V-component_of_CURRENTS"},"data":[0,0,0,0,0,0,0,0,0,0,0,0,0,0,0,0,0,0,0,0,0,0,0,0,0,0,0,0,0,0,0,0,0,0,0,0,0,0,0,0,0,0,0,0,0,0,0,0,0,0,0,0,0,0,0,0,0,0,0.0066,0.0065,0,-0.0008,-0.0009,-0.001,-0.0071,-0.0071,-0.0072,-0.0072,-0.0185,-0.0188,-0.019,0,0,0,0,0,0,0,0,0,0,0,0,0,0.0083,0.0084,0.0066,0.0065,0.0065,-0.0008,-0.0009,-0.001,-0.0071,-0.0071,-0.0072,-0.0072,-0.0184,-0.0187,-0.0191,0,0,0,0,0,0,0,0,0,0,0,0,0,0.0047,0.0084,0.0066,0.0027,0.0023,-0.0008,-0.0009,-0.0011,-0.0071,-0.0071,-0.0072,-0.0072,-0.0183,-0.0187,-0.0191,-0.0203,0,0,-0.0203,-0.0205,0,0,0,0,0,0,0,0,0.0049,0.0046,0.0034,0.003,0.0026,-0.0029,-0.0044,-0.0076,-0.007,-0.0037,-0.0072,-0.0073,-0.0134,-0.0142,-0.0158,-0.0208,-0.0213,-0.0203,-0.0206,-0.0207,-0.0209,0,0,0,0,0,0,0,0.0052,0.0049,0.0034,0.0033,0.0028,-0.0011,-0.0016,-0.0051,-0.0084,-0.004,-0.0044,-0.0049,-0.0137,-0.0154,-0.0161,-0.0215,-0.0203,-0.0207,-0.0209,-0.0211,-0.026,-0.0259,0,0,0,0,0,0,0.0071,0.0052,0.0037,0.0032,0.0039,-0.001,-0.0016,-0.0013,-0.0083,-0.0093,-0.0048,-0.0051,-0.0147,-0.0156,-0.0165,-0.0134,-0.0207,-0.0211,-0.0213,-0.0261,-0.026,-0.0259,0,0,0,0,0,0,0.0071,0.007,0.004,0.0041,0.0035,-0.0009,-0.0005,-0.0014,-0.0024,-0.0088,-0.01,-0.0048,-0.0148,-0.016,-0.0182,-0.0141,-0.0213,-0.0216,-0.0262,-0.0261,-0.0259,-0.0104,0,0,0,0,0,0,0.0072,0.0071,0.0078,0.0043,0.0036,0.0041,-0.0004,-0.0015,-0.0025,-0.003,-0.0092,-0.0104,-0.0149,-0.0176,-0.0186,-0.0148,-0.022,-0.0264,-0.0261,-0.026,-0.011,-0.0097,-0.0086,0,0,0,0,0,0.0073,0.0097,0.0079,0.0077,0.0048,0.0043,0.0036,-0.0,-0.0024,-0.0015,-0.006,-0.0102,-0.0171,-0.0178,-0.019,-0.0152,-0.0265,-0.0262,-0.026,-0.0116,-0.0099,-0.0086,0,0,0,0,0,0,0.0109,0.0092,0.0072,0.0088,0.0073,0.0034,0.0036,0.0011,-0.0018,-0.0027,-0.009,-0.0104,-0.0107,-0.0156,-0.0163,-0.0163,-0.0224,-0.0224,-0.011,-0.0095,-0.0083,-0.0026,-0.0223,0,0,0,0,0,0.0121,0.0133,0.0107,0.0121,0.0116,0.0076,0.0067,0.0046,0.0016,0.0002,-0.0041,-0.0086,-0.0108,-0.0122,-0.0158,-0.0159,-0.0172,-0.0145,-0.0132,-0.0121,-0.0085,-0.0063,-0.0044,-0.0251,-0.0251,-0.0251,0,0,0.0137,0.013,0.0135,0.0129,0.0109,0.0126,0.007,0.0069,0.009,-0.0006,0.0003,-0.0046,-0.01,-0.0096,-0.0102,-0.0131,-0.0073,-0.0118,-0.0108,-0.0077,-0.0059,-0.0038,-0.002,-0.0249,-0.0249,-0.025,0,0,0.0187,0.0171,0.02,0.0195,0.018,0.0164,0.0172,0.0141,0.0133,0.0127,0.0076,0.0065,0.0003,-0.0002,-0.0018,0.0039,-0.0009,0.001,0.0123,0.0144,0.0162,0.0178,0.0183,0.0198,0.0018,0.0019,0.0019,0,0.0206,0.0247,0.0208,0.0234,0.0254,0.0192,0.0241,0.0222,0.0189,0.0216,0.0147,0.0125,0.0061,0.0118,0.0123,0.0075,0.0066,0.0076,0.0165,0.018,0.0194,0.0195,0.021,0.0026,0.0025,0.0025,0.0024,0,0.0278,0.0311,0.0331,0.0352,0.0361,0.0394,0.0372,0.0383,0.0356,0.0346,0.038,0.03,0.0307,0.0267,0.0202,0.028,0.0235,0.018,0.014,0.0226,0.0219,0.0232,0.0038,0.0035,0.0032,0.003,0,0,0.0341,0.0379,0.039,0.0449,0.0438,0.0477,0.0506,0.0558,0.0635,0.0563,0.0668,0.0586,0.0558,0.0539,0.047,0.0459,0.0517,0.0362,0.0359,0.0389,0.0558,0.0498,0.0505,0.0478,0.0481,0.0483,0.0513,0,0.0424,0.0533,0.0514,0.0634,0.0706,0.0674,0.073,0.0758,0.0763,0.0838,0.0774,0.0828,0.066,0.0688,0.0651,0.0566,0.0559,0.0514,0.0452,0.045,0.0406,0.0522,0.0466,0.0486,0.0525,0.0527,0.0529,0,0.0523,0.0594,0.0732,0.0845,0.0872,0.093,0.1062,0.1097,0.1152,0.1158,0.1179,0.1132,0.1134,0.0971,0.0882,0.086,0.0732,0.0633,0.0631,0.0539,0.0416,0.0404,0.0507,0.0222,0.0548,0.0546,0.0545,0,0.0667,0.0763,0.0904,0.0935,0.1027,0.1107,0.1157,0.1221,0.1308,0.1395,0.1483,0.1438,0.1471,0.1304,0.1064,0.0997,0.0947,0.0837,0.0668,0.0661,0.0586,0.0568,0.0431,0.0796,0.0796,0.0796,0.0796,0,0.0807,0.0928,0.0997,0.1088,0.1283,0.1274,0.1474,0.1516,0.161,0.1768,0.1682,0.1808,0.1554,0.1475,0.1205,0.0991,0.1066,0.0735,0.0688,0.0634,0.062,0.0343,0.0183,0.0797,0.0797,0.0797,0.0796,0,0.099,0.101,0.1202,0.1324,0.1371,0.1526,0.1671,0.1799,0.1868,0.208,0.213,0.2129,0.2039,0.1748,0.1508,0.1221,0.0824,0.0884,0.0826,0.0771,0.033,0.0182,0.0039,-0.008,0.0735,0.0734,0.0733,0,0.111,0.1222,0.1403,0.1495,0.1568,0.175,0.1861,0.1942,0.2075,0.2285,0.2411,0.2417,0.2444,0.2062,0.1559,0.1132,0.0842,0.0792,0.0648,0.0344,0.0144,0.0041,-0.0056,0.0602,0.06,0.0599,0.0598,0,0.135,0.1407,0.1542,0.1714,0.1857,0.2038,0.2205,0.2351,0.2468,0.2654,0.2866,0.2919,0.2582,0.2149,0.1554,0.1219,0.0581,0.0748,0.0464,0.0076,-0.007,-0.022,0.0523,0.0584,0.0586,0.0587,0.0587,0.0588,0.1525,0.1639,0.1753,0.1928,0.2083,0.2277,0.2442,0.2618,0.2864,0.3133,0.3171,0.3281,0.262,0.1817,0.1362,0.045,0.0493,0.0155,0.0018,-0.0045,-0.0208,0.0504,0.0483,0.0484,0.0485,0.0485,0.0486,0,0.1664,0.1742,0.1922,0.2103,0.228,0.2339,0.2616,0.2778,0.307,0.3326,0.3502,0.3193,0.2406,0.159,0.0373,-0.0198,-0.0409,-0.0506,-0.0687,-0.0738,-0.0079,-0.0141,-0.0332,-0.0332,-0.0331,-0.0331,-0.0331,-0.0331,0.1727,0.1863,0.1928,0.2205,0.2341,0.2581,0.2747,0.3019,0.3239,0.3505,0.3548,0.3553,0.2784,0.0752,-0.0591,-0.0871,-0.1271,-0.1358,-0.1505,-0.1119,-0.1069,-0.1021,-0.1116,-0.1509,-0.1511,-0.2119,-0.2126,-0.2131]}],[{"header":{"parameterUnit":"m.s-1","parameterCategory":2,"la1":30.2991,"la2":30.254,"lo1":-89.0895,"lo2":-89.0444,"dy":0.0017,"dx":0.0017,"nx":28,"ny":28,"refTime":"2025-01-27T03:00:00:Z","depth":"2","parameterNumber":2,"parameterNumberName":"U-component_of_CURRENTS"},"data":[0,0,0,0,0,0,0,0,0,0,0,0,0,0,0,0,0,0,0,0,0,0,0,0,0,0,0,0,0,0,0,0,0,0,0,0,0,0,0,0,0,0,0,0,0,0,0,0,0,0,0,0,0,0,0,0,0,0,0.2779,0.278,0,0.2874,0.2875,0.2876,0.2914,0.2913,0.2913,0.2913,0.2922,0.2922,0.2922,0,0,0,0,0,0,0,0,0,0,0,0,0,0.266,0.2661,0.2779,0.278,0.2781,0.2874,0.2875,0.2877,0.2914,0.2913,0.2913,0.2913,0.2922,0.2922,0.2922,0,0,0,0,0,0,0,0,0,0,0,0,0,0.2728,0.2662,0.2778,0.2812,0.2816,0.2874,0.2875,0.2877,0.2914,0.2913,0.2913,0.2913,0.2921,0.2922,0.2923,0.2931,0,0,0.2924,0.2925,0,0,0,0,0,0,0,0,0.2724,0.2732,0.2805,0.2809,0.2814,0.2883,0.2837,0.2891,0.2914,0.2875,0.2913,0.2913,0.2901,0.2904,0.2922,0.2931,0.2932,0.2924,0.2925,0.2925,0.2925,0,0,0,0,0,0,0,0.2719,0.2728,0.2815,0.2807,0.2812,0.2833,0.2842,0.2848,0.2886,0.2879,0.2882,0.2894,0.2903,0.2921,0.2922,0.2932,0.2924,0.2925,0.2925,0.2925,0.3009,0.301,0,0,0,0,0,0,0.2708,0.2724,0.2812,0.2818,0.2769,0.2835,0.2845,0.286,0.2888,0.2893,0.2894,0.2896,0.2921,0.2921,0.2922,0.2967,0.2925,0.2925,0.2926,0.3007,0.3009,0.3011,0,0,0,0,0,0,0.2705,0.2715,0.2809,0.2774,0.2787,0.2837,0.2854,0.2862,0.2883,0.2901,0.2904,0.2907,0.292,0.2922,0.2932,0.2965,0.2926,0.2926,0.3005,0.3008,0.301,0.3033,0,0,0,0,0,0,0.2702,0.2714,0.2735,0.2773,0.2789,0.284,0.2855,0.2864,0.2891,0.2894,0.2913,0.2913,0.292,0.2931,0.2933,0.2966,0.2927,0.3002,0.3006,0.3009,0.303,0.3036,0.3042,0,0,0,0,0,0.2697,0.2723,0.2735,0.2747,0.2812,0.2841,0.285,0.2884,0.2892,0.2901,0.2916,0.2913,0.2956,0.2932,0.2934,0.2968,0.3001,0.3005,0.3009,0.3027,0.3035,0.3042,0,0,0,0,0,0,0.2681,0.273,0.2745,0.2784,0.2809,0.2847,0.2875,0.2884,0.2907,0.2919,0.2919,0.2922,0.2959,0.2955,0.2929,0.3007,0.2985,0.2989,0.2999,0.3006,0.3012,0.3054,0.2927,0,0,0,0,0,0.2687,0.2713,0.2756,0.2781,0.2804,0.2837,0.2859,0.288,0.2901,0.2912,0.2927,0.2951,0.298,0.2981,0.3013,0.3028,0.3065,0.3059,0.3065,0.307,0.3108,0.3197,0.3214,0.3025,0.3025,0.3025,0,0,0.2687,0.2715,0.2732,0.2778,0.2809,0.2844,0.2849,0.2888,0.2913,0.2908,0.2951,0.2976,0.2994,0.3034,0.3049,0.3027,0.3136,0.3075,0.3079,0.3116,0.3203,0.3222,0.3238,0.3028,0.3027,0.3027,0,0,0.2687,0.2727,0.2752,0.2775,0.2824,0.2856,0.2863,0.2911,0.2935,0.2965,0.299,0.3031,0.3051,0.3088,0.3101,0.3154,0.3177,0.3164,0.321,0.3294,0.3311,0.3326,0.3363,0.3381,0.3151,0.3151,0.3151,0,0.2693,0.2725,0.276,0.2785,0.2822,0.2857,0.2896,0.2921,0.2962,0.3004,0.2982,0.3099,0.3086,0.3171,0.3183,0.317,0.3212,0.3172,0.3302,0.3318,0.3334,0.3368,0.3388,0.3153,0.3153,0.3153,0.3152,0,0.2696,0.2739,0.2756,0.2808,0.2847,0.2885,0.2934,0.2976,0.301,0.3051,0.3151,0.3166,0.3242,0.3236,0.3212,0.3327,0.3319,0.3309,0.3281,0.3354,0.3385,0.3405,0.3155,0.3155,0.3154,0.3154,0,0,0.2685,0.2753,0.276,0.2803,0.2873,0.2909,0.2967,0.3052,0.3117,0.3167,0.3268,0.3307,0.3355,0.3378,0.3381,0.343,0.3525,0.341,0.3413,0.3442,0.3697,0.3593,0.3605,0.3545,0.3549,0.3553,0.3662,0,0.269,0.2749,0.2781,0.2854,0.2912,0.297,0.3024,0.3104,0.3173,0.3273,0.334,0.3435,0.3396,0.3447,0.3497,0.3541,0.3588,0.3496,0.3629,0.3633,0.3529,0.3629,0.3353,0.3421,0.3682,0.3686,0.3688,0,0.2693,0.2743,0.2815,0.2923,0.2953,0.2996,0.3137,0.319,0.3328,0.3387,0.3512,0.3574,0.3685,0.3628,0.3765,0.3715,0.3719,0.373,0.3735,0.3657,0.357,0.34,0.3449,0.3723,0.372,0.3717,0.3715,0,0.2687,0.2776,0.2843,0.2871,0.2985,0.3039,0.3112,0.3241,0.3315,0.349,0.3571,0.3725,0.3807,0.3879,0.3885,0.3852,0.4015,0.3966,0.3881,0.3871,0.3675,0.3641,0.4074,0.4074,0.4074,0.4074,0.4074,0,0.2686,0.2746,0.2848,0.2879,0.2972,0.3062,0.3176,0.326,0.3417,0.3508,0.3643,0.3749,0.3879,0.3968,0.3966,0.3991,0.4086,0.3932,0.3918,0.3669,0.3634,0.3929,0.3911,0.4078,0.4077,0.4076,0.4075,0,0.2659,0.2723,0.281,0.293,0.2966,0.3039,0.3184,0.3254,0.3417,0.3546,0.3612,0.3812,0.3927,0.4008,0.4119,0.4076,0.4113,0.4083,0.3759,0.3705,0.3891,0.3873,0.4039,0.4037,0.4035,0.4033,0.4032,0,0.2651,0.2692,0.2813,0.2833,0.288,0.2994,0.3044,0.323,0.33,0.3554,0.3595,0.3798,0.3875,0.4021,0.4012,0.4031,0.4079,0.3766,0.3653,0.3932,0.3901,0.3886,0.387,0.3386,0.3379,0.3374,0.337,0,0.2616,0.2657,0.2695,0.2756,0.2809,0.288,0.2977,0.3042,0.3239,0.3348,0.3497,0.3611,0.3779,0.3714,0.3762,0.3727,0.3748,0.3657,0.4082,0.3429,0.3323,0.329,0.3295,0.3322,0.3327,0.3331,0.3333,0.3335,0.2557,0.2563,0.2595,0.2644,0.2696,0.2727,0.2741,0.2845,0.2944,0.3064,0.3264,0.3333,0.3449,0.34,0.3317,0.327,0.3509,0.336,0.3374,0.3394,0.3291,0.3187,0.314,0.3143,0.3146,0.3149,0.3151,0,0.2444,0.2457,0.247,0.2501,0.2502,0.2598,0.2643,0.2618,0.2649,0.2819,0.2914,0.2759,0.2776,0.2884,0.2754,0.2772,0.2723,0.2658,0.2569,0.2621,0.2666,0.2521,0.2168,0.2164,0.216,0.2157,0,0,0.2379,0.2335,0.234,0.2301,0.233,0.2271,0.2275,0.2255,0.2323,0.2325,0.2376,0.2636,0.2813,0.2437,0.2414,0.2267,0.2414,0.2186,0.2987,0.2936,0.2975,0.31,0.294,0,0,0,0,0]},{"header":{"parameterUnit":"m.s-1","parameterCategory":2,"la1":30.2991,"la2":30.254,"lo1":-89.0895,"lo2":-89.0444,"dy":0.0017,"dx":0.0017,"nx":28,"ny":28,"refTime":"2025-01-27T03:00:00:Z","depth":"2","parameterNumber":3,"parameterNumberName":"V-component_of_CURRENTS"},"data":[0,0,0,0,0,0,0,0,0,0,0,0,0,0,0,0,0,0,0,0,0,0,0,0,0,0,0,0,0,0,0,0,0,0,0,0,0,0,0,0,0,0,0,0,0,0,0,0,0,0,0,0,0,0,0,0,0,0,0.0067,0.0067,0,0.0003,0.0003,0.0002,-0.005,-0.0051,-0.0051,-0.0051,-0.0147,-0.0149,-0.0152,0,0,0,0,0,0,0,0,0,0,0,0,0,0.0071,0.0072,0.0067,0.0067,0.0066,0.0004,0.0003,0.0001,-0.005,-0.0051,-0.0051,-0.0051,-0.0146,-0.0149,-0.0152,0,0,0,0,0,0,0,0,0,0,0,0,0,0.0043,0.0072,0.0067,0.0034,0.0031,0.0004,0.0002,0.0001,-0.005,-0.0051,-0.0051,-0.0052,-0.0146,-0.0149,-0.0152,-0.0162,0,0,-0.0162,-0.0164,0,0,0,0,0,0,0,0,0.0045,0.0043,0.004,0.0036,0.0033,-0.0014,-0.0031,-0.0054,-0.005,-0.0021,-0.0051,-0.0052,-0.0104,-0.0111,-0.0124,-0.0167,-0.0171,-0.0163,-0.0165,-0.0166,-0.0167,0,0,0,0,0,0,0,0.0047,0.0045,0.004,0.0039,0.0035,-0.0002,-0.0006,-0.0036,-0.0061,-0.0024,-0.0027,-0.0031,-0.0107,-0.0121,-0.0127,-0.0172,-0.0163,-0.0166,-0.0168,-0.0169,-0.0235,-0.0235,0,0,0,0,0,0,0.0063,0.0047,0.0042,0.0038,0.004,-0.0001,-0.0006,-0.0,-0.006,-0.0069,-0.0031,-0.0033,-0.0115,-0.0123,-0.013,-0.0134,-0.0166,-0.0169,-0.0171,-0.0235,-0.0235,-0.0235,0,0,0,0,0,0,0.0064,0.0064,0.0045,0.0042,0.0037,-0.0,0.0006,-0.0001,-0.0013,-0.0065,-0.0075,-0.0034,-0.0115,-0.0126,-0.015,-0.0139,-0.0171,-0.0174,-0.0236,-0.0235,-0.0235,-0.0149,0,0,0,0,0,0,0.0064,0.0065,0.0072,0.0044,0.0038,0.0039,0.0007,-0.0002,-0.0013,-0.0017,-0.007,-0.008,-0.0117,-0.0144,-0.0153,-0.0144,-0.0176,-0.0236,-0.0235,-0.0235,-0.0152,-0.0146,-0.014,0,0,0,0,0,0.0065,0.0085,0.0073,0.0072,0.005,0.004,0.0034,0.0003,-0.0013,-0.0011,-0.0047,-0.0078,-0.0148,-0.0146,-0.0157,-0.0148,-0.0236,-0.0236,-0.0235,-0.0155,-0.0147,-0.014,0,0,0,0,0,0,0.0091,0.0081,0.0067,0.0082,0.0065,0.0032,0.0031,0.0011,-0.0017,-0.0021,-0.0073,-0.0084,-0.0105,-0.0138,-0.0135,-0.0168,-0.0198,-0.02,-0.0134,-0.0127,-0.0121,-0.0098,-0.0179,0,0,0,0,0,0.0101,0.0113,0.0092,0.0103,0.0098,0.0065,0.0056,0.0038,0.0012,-0.0001,-0.0038,-0.0078,-0.0111,-0.0126,-0.0163,-0.0174,-0.0212,-0.0178,-0.0172,-0.0166,-0.0156,-0.0195,-0.0191,-0.0233,-0.0233,-0.0233,0,0,0.0114,0.011,0.0115,0.0109,0.0091,0.0096,0.0058,0.0054,0.0058,-0.0007,-0.0016,-0.006,-0.0111,-0.0128,-0.014,-0.0152,-0.0177,-0.0166,-0.016,-0.0153,-0.0194,-0.019,-0.0186,-0.0233,-0.0233,-0.0233,0,0,0.0148,0.0142,0.0162,0.0154,0.014,0.0123,0.0127,0.0099,0.0086,0.0072,0.0025,-0.0006,-0.0056,-0.0087,-0.011,-0.0092,-0.0147,-0.0108,-0.0055,-0.0093,-0.0089,-0.0087,-0.0137,-0.0139,-0.0101,-0.0101,-0.0101,0,0.0161,0.0186,0.0165,0.0179,0.0182,0.0142,0.0164,0.0145,0.0112,0.011,0.008,0.0013,-0.0034,-0.0049,-0.0049,-0.0077,-0.0112,-0.0074,-0.0083,-0.0082,-0.008,-0.0132,-0.0136,-0.0097,-0.0097,-0.0098,-0.0098,0,0.0207,0.0225,0.0237,0.0245,0.0245,0.0257,0.0235,0.023,0.0207,0.0185,0.0162,0.0096,0.006,0.0035,-0.0004,-0.0015,-0.0049,-0.0073,-0.0096,-0.0071,-0.0128,-0.0133,-0.0091,-0.0092,-0.0094,-0.0095,0,0,0.0241,0.0267,0.0269,0.0294,0.0284,0.0297,0.0303,0.0305,0.0322,0.0271,0.0284,0.0212,0.0175,0.0146,0.0091,0.0053,0.0019,0.0001,-0.0004,-0.0039,-0.0074,-0.0104,-0.0114,-0.0005,-0.0005,-0.0005,-0.012,0,0.0282,0.034,0.0334,0.0386,0.0417,0.0391,0.0406,0.04,0.038,0.0378,0.0311,0.0294,0.0218,0.0204,0.0155,0.0059,0.001,0.0052,-0.0103,-0.0107,-0.0128,-0.0119,-0.0084,-0.0183,-0.0126,-0.0127,-0.0127,0,0.0326,0.0366,0.0429,0.0478,0.0488,0.0509,0.0539,0.0549,0.0528,0.0511,0.0476,0.0418,0.036,0.0289,0.0142,0.0173,0.0057,-0.0027,-0.0034,-0.0092,-0.0146,-0.0199,-0.0196,-0.0137,-0.0137,-0.0136,-0.0135,0,0.0374,0.0432,0.0493,0.0506,0.0547,0.0574,0.0595,0.0592,0.062,0.0599,0.0606,0.0521,0.0482,0.0344,0.016,0.0153,-0.0012,-0.0045,-0.0186,-0.019,-0.0205,-0.021,-0.0157,-0.0157,-0.0156,-0.0156,-0.0156,0,0.0418,0.0467,0.0526,0.0557,0.0638,0.0644,0.0714,0.0714,0.0733,0.0775,0.0684,0.0689,0.0493,0.0372,0.0198,-0.0006,0.0013,-0.0174,-0.0216,-0.0177,-0.0177,-0.0172,-0.0172,-0.016,-0.0159,-0.0159,-0.0158,0,0.0447,0.0482,0.0561,0.0631,0.0661,0.0719,0.0799,0.0845,0.085,0.09,0.0899,0.0814,0.0661,0.0444,0.0211,0.0048,-0.0147,-0.0233,-0.018,-0.0214,-0.0312,-0.0307,-0.0389,-0.0391,-0.0392,-0.0393,-0.0395,0,0.0462,0.0507,0.0616,0.067,0.0703,0.0793,0.0852,0.0897,0.0957,0.098,0.1013,0.089,0.0822,0.0472,0.0163,-0.0144,-0.0181,-0.0322,-0.033,-0.03,-0.0333,-0.0325,-0.0318,-0.0328,-0.0329,-0.0329,-0.0329,0,0.049,0.0528,0.0595,0.0725,0.0805,0.0909,0.1005,0.108,0.1134,0.1173,0.1214,0.1168,0.0833,0.0546,0.0116,-0.0091,-0.0265,-0.0341,-0.032,-0.0268,-0.025,-0.0281,-0.0274,-0.0333,-0.0333,-0.0332,-0.0332,-0.0332,0.0503,0.0565,0.0668,0.079,0.0888,0.103,0.114,0.1242,0.1363,0.1449,0.1375,0.1321,0.0963,0.0444,0.0074,-0.0308,-0.03,-0.0422,-0.0418,-0.0414,-0.0379,-0.0364,-0.0463,-0.0463,-0.0464,-0.0464,-0.0464,0,0.0541,0.0621,0.0729,0.0892,0.1014,0.1068,0.1247,0.136,0.1523,0.1571,0.1594,0.1266,0.0923,0.0525,-0.004,-0.0388,-0.0406,-0.049,-0.0428,-0.0422,-0.0418,-0.0381,-0.0468,-0.0468,-0.0469,-0.047,0,0,0.0559,0.0682,0.0758,0.0979,0.1094,0.1288,0.1408,0.1554,0.165,0.1717,0.1687,0.1572,0.1076,0.0673,0.0189,-0.0126,-0.0188,-0.0192,-0.0154,-0.0018,-0.0009,-0.0349,-0.0283,0,0,0,0,0]}],[{"header":{"parameterUnit":"m.s-1","parameterCategory":2,"la1":30.2991,"la2":30.254,"lo1":-89.0895,"lo2":-89.0444,"dy":0.0017,"dx":0.0017,"nx":28,"ny":28,"refTime":"2025-01-27T03:00:00:Z","depth":"4","parameterNumber":2,"parameterNumberName":"U-component_of_CURRENTS"},"data":[0,0,0,0,0,0,0,0,0,0,0,0,0,0,0,0,0,0,0,0,0,0,0,0,0,0,0,0,0,0,0,0,0,0,0,0,0,0,0,0,0,0,0,0,0,0,0,0,0,0,0,0,0,0,0,0,0,0,0.171,0.1711,0,0.1784,0.1784,0.1785,0.1838,0.1838,0.1839,0.184,0.1928,0.1929,0.1931,0,0,0,0,0,0,0,0,0,0,0,0,0,0.1601,0.1602,0.1709,0.1711,0.1712,0.1784,0.1784,0.1785,0.1838,0.1838,0.1839,0.184,0.1927,0.1929,0.1931,0,0,0,0,0,0,0,0,0,0,0,0,0,0.1656,0.1603,0.1709,0.1749,0.1753,0.1783,0.1784,0.1785,0.1837,0.1838,0.1839,0.184,0.1926,0.1929,0.1931,0.1927,0,0,0.1939,0.1941,0,0,0,0,0,0,0,0,0.1653,0.166,0.1742,0.1746,0.1751,0.1805,0.1778,0.1834,0.1837,0.1803,0.184,0.1841,0.1889,0.1895,0.1902,0.1932,0.1935,0.194,0.1941,0.1942,0.1943,0,0,0,0,0,0,0,0.1649,0.1657,0.1736,0.1743,0.1749,0.1758,0.1767,0.1789,0.1837,0.1806,0.181,0.1822,0.1891,0.19,0.1905,0.1937,0.194,0.1942,0.1943,0.1944,0.2078,0.208,0,0,0,0,0,0,0.1645,0.1653,0.1734,0.1739,0.1706,0.176,0.1769,0.1784,0.1837,0.1847,0.1822,0.1825,0.1895,0.1902,0.1908,0.2009,0.1942,0.1945,0.1946,0.2076,0.2079,0.2081,0,0,0,0,0,0,0.1642,0.1651,0.1731,0.1699,0.1711,0.1761,0.1777,0.1785,0.1834,0.1849,0.1859,0.1867,0.1896,0.1905,0.197,0.2009,0.1946,0.1948,0.2074,0.2077,0.208,0.2144,0,0,0,0,0,0,0.1639,0.165,0.1672,0.1699,0.1712,0.1773,0.1777,0.1786,0.1839,0.1845,0.189,0.1897,0.1897,0.1966,0.1972,0.2011,0.195,0.2071,0.2075,0.2079,0.2139,0.2149,0.2157,0,0,0,0,0,0.1635,0.1656,0.1673,0.1683,0.1737,0.1774,0.1782,0.1818,0.184,0.1865,0.1906,0.1898,0.1994,0.197,0.1977,0.2017,0.207,0.2074,0.2079,0.2135,0.2147,0.2157,0,0,0,0,0,0,0.1621,0.1664,0.1683,0.1718,0.1756,0.1785,0.1816,0.1841,0.1892,0.1911,0.1925,0.1935,0.2004,0.2005,0.1978,0.2067,0.203,0.2036,0.207,0.2081,0.209,0.2095,0.1952,0,0,0,0,0,0.1627,0.1661,0.1697,0.1732,0.1752,0.1793,0.1819,0.1846,0.1887,0.1912,0.1946,0.1984,0.2021,0.2049,0.2074,0.2126,0.213,0.2157,0.2165,0.2173,0.2183,0.2242,0.2257,0.2096,0.2096,0.2096,0,0,0.1633,0.1663,0.1684,0.1733,0.1767,0.1801,0.1812,0.1864,0.1905,0.1913,0.199,0.2019,0.2042,0.21,0.2131,0.2112,0.2217,0.2179,0.2185,0.2191,0.2248,0.2264,0.2278,0.2099,0.2098,0.2098,0,0,0.165,0.169,0.1718,0.1753,0.1811,0.1834,0.1858,0.191,0.195,0.2016,0.2037,0.2096,0.2148,0.2176,0.2194,0.2269,0.2261,0.228,0.2333,0.239,0.2404,0.2416,0.2422,0.2434,0.2286,0.2286,0.2286,0,0.1655,0.1697,0.1734,0.1769,0.1806,0.1853,0.1892,0.1933,0.2005,0.2049,0.2052,0.2162,0.2181,0.2258,0.2286,0.2289,0.2307,0.2288,0.2402,0.2414,0.2425,0.2429,0.2441,0.229,0.2289,0.2289,0.2289,0,0.1681,0.1729,0.1753,0.1813,0.1855,0.1902,0.1957,0.2018,0.2071,0.2112,0.2212,0.2246,0.2314,0.2328,0.2332,0.2428,0.2408,0.2404,0.2372,0.2445,0.2444,0.2456,0.2295,0.2294,0.2293,0.2292,0,0,0.1652,0.1751,0.1764,0.1802,0.1887,0.1918,0.2003,0.2085,0.2154,0.2222,0.2305,0.2377,0.2413,0.2436,0.2456,0.2504,0.2589,0.2498,0.2499,0.2498,0.2695,0.2536,0.2533,0.2617,0.262,0.2622,0.2653,0,0.1665,0.1734,0.1786,0.1862,0.1899,0.198,0.2053,0.2139,0.2215,0.2305,0.2366,0.2447,0.2448,0.2495,0.2549,0.2591,0.2629,0.2579,0.2629,0.2629,0.2476,0.2545,0.2632,0.2662,0.2665,0.2667,0.2668,0,0.1666,0.1716,0.1788,0.1895,0.1922,0.198,0.2113,0.2185,0.2318,0.2387,0.2485,0.253,0.263,0.2607,0.2719,0.2695,0.2706,0.2716,0.2718,0.2558,0.2494,0.258,0.269,0.2688,0.2686,0.2685,0.2684,0,0.1611,0.1716,0.1777,0.1813,0.1936,0.2002,0.2079,0.2217,0.2295,0.2447,0.2514,0.2632,0.2699,0.2756,0.279,0.2776,0.288,0.2856,0.2711,0.2698,0.2801,0.2788,0.2921,0.2921,0.2921,0.2921,0.2921,0,0.1584,0.1639,0.1763,0.1791,0.1876,0.1981,0.2092,0.2194,0.2344,0.2426,0.2555,0.2624,0.2748,0.2812,0.2826,0.2804,0.2915,0.2728,0.2708,0.2823,0.2812,0.2808,0.2794,0.2922,0.2921,0.2921,0.2921,0,0.1505,0.1597,0.1666,0.1801,0.1848,0.191,0.2078,0.2145,0.2319,0.2429,0.2482,0.2652,0.2743,0.2815,0.2901,0.283,0.2831,0.2787,0.2889,0.2873,0.2595,0.2585,0.2628,0.2623,0.2619,0.2615,0.2612,0,0.1466,0.1491,0.1634,0.167,0.1735,0.1848,0.1913,0.2108,0.2179,0.2416,0.2441,0.2599,0.2684,0.2671,0.2774,0.2782,0.2751,0.2717,0.2668,0.2595,0.2572,0.2569,0.2564,0.2606,0.2604,0.2603,0.2602,0,0.1363,0.1432,0.148,0.1555,0.1629,0.1709,0.1825,0.1873,0.2087,0.2258,0.235,0.2412,0.2502,0.257,0.2595,0.2598,0.2728,0.2672,0.268,0.2633,0.2568,0.2549,0.255,0.2587,0.2589,0.2591,0.2592,0,0.1278,0.1285,0.1353,0.1412,0.1499,0.1544,0.1633,0.1725,0.1837,0.2105,0.2128,0.2307,0.247,0.2474,0.2502,0.2496,0.246,0.237,0.2393,0.241,0.2329,0.2214,0.2116,0,0,0,0,0,0.1175,0.1169,0.1198,0.126,0.1342,0.1405,0.1552,0.1652,0.1865,0.1868,0.2004,0.2081,0.2163,0.2263,0.2214,0.2402,0.2458,0.2334,0.2362,0.2505,0.2522,0.2449,0,0,0,0,0,0,0.1098,0.1127,0.1142,0.1125,0.1142,0.1223,0.132,0.1462,0.1493,0.1715,0.1772,0.1942,0.2049,0.2157,0.2166,0.2194,0.2167,0.2453,0.2448,0.2495,0.2511,0.2525,0.2455,0,0,0,0,0]},{"header":{"parameterUnit":"m.s-1","parameterCategory":2,"la1":30.2991,"la2":30.254,"lo1":-89.0895,"lo2":-89.0444,"dy":0.0017,"dx":0.0017,"nx":28,"ny":28,"refTime":"2025-01-27T03:00:00:Z","depth":"4","parameterNumber":3,"parameterNumberName":"V-component_of_CURRENTS"},"data":[0,0,0,0,0,0,0,0,0,0,0,0,0,0,0,0,0,0,0,0,0,0,0,0,0,0,0,0,0,0,0,0,0,0,0,0,0,0,0,0,0,0,0,0,0,0,0,0,0,0,0,0,0,0,0,0,0,0,0.0091,0.0091,0,0.0053,0.0053,0.0052,0.0024,0.0023,0.0023,0.0023,-0.0046,-0.0048,-0.0049,0,0,0,0,0,0,0,0,0,0,0,0,0,0.0091,0.0092,0.0091,0.0091,0.009,0.0053,0.0053,0.0052,0.0024,0.0023,0.0023,0.0023,-0.0045,-0.0047,-0.0049,0,0,0,0,0,0,0,0,0,0,0,0,0,0.0076,0.0092,0.0091,0.0072,0.007,0.0054,0.0053,0.0052,0.0024,0.0023,0.0023,0.0023,-0.0045,-0.0047,-0.005,-0.0059,0,0,-0.0057,-0.0058,0,0,0,0,0,0,0,0,0.0077,0.0075,0.0076,0.0074,0.0071,0.0044,0.0027,0.0014,0.0024,0.0041,0.0023,0.0023,-0.0018,-0.0023,-0.003,-0.0063,-0.0066,-0.0058,-0.0059,-0.006,-0.0061,0,0,0,0,0,0,0,0.0078,0.0077,0.0075,0.0075,0.0073,0.0049,0.0047,0.0025,0.0012,0.0039,0.0037,0.0034,-0.002,-0.0028,-0.0032,-0.0067,-0.0057,-0.006,-0.0061,-0.0062,-0.0121,-0.0121,0,0,0,0,0,0,0.0087,0.0078,0.0077,0.0074,0.0074,0.005,0.0047,0.0052,0.0013,0.0007,0.0035,0.0033,-0.0023,-0.0029,-0.0035,-0.0045,-0.006,-0.0062,-0.0064,-0.0121,-0.0121,-0.0121,0,0,0,0,0,0,0.0087,0.0088,0.0078,0.0075,0.0073,0.0051,0.0056,0.0052,0.0045,0.001,0.0003,0.0033,-0.0024,-0.0031,-0.0052,-0.0048,-0.0064,-0.0066,-0.0121,-0.0121,-0.0121,-0.0068,0,0,0,0,0,0,0.0088,0.0088,0.0095,0.0076,0.0073,0.0074,0.0056,0.0051,0.0044,0.0042,0.0006,-0.0,-0.0024,-0.0048,-0.0055,-0.0052,-0.0068,-0.0121,-0.0121,-0.0121,-0.007,-0.0066,-0.0063,0,0,0,0,0,0.0088,0.0103,0.0096,0.0096,0.0084,0.0074,0.007,0.0052,0.0045,0.0045,0.002,0.0001,-0.0054,-0.005,-0.0058,-0.0055,-0.0121,-0.0121,-0.0121,-0.0071,-0.0067,-0.0063,0,0,0,0,0,0,0.0106,0.01,0.0093,0.0105,0.0092,0.007,0.0071,0.0057,0.0038,0.0037,0.0002,-0.0007,-0.0026,-0.0048,-0.0044,-0.0074,-0.0091,-0.0093,-0.0051,-0.0047,-0.0044,-0.0034,-0.007,0,0,0,0,0,0.0114,0.0124,0.0109,0.0117,0.0115,0.0093,0.0087,0.0076,0.0056,0.0048,0.0023,-0.0006,-0.0032,-0.0045,-0.0071,-0.0085,-0.0121,-0.009,-0.0086,-0.0084,-0.0081,-0.0129,-0.013,-0.0121,-0.0121,-0.0121,0,0,0.0123,0.0121,0.0126,0.0122,0.0111,0.0114,0.0089,0.0086,0.0087,0.0043,0.0037,0.0004,-0.0034,-0.0051,-0.0061,-0.0068,-0.0107,-0.0084,-0.0081,-0.008,-0.013,-0.013,-0.0131,-0.0121,-0.0121,-0.0121,0,0,0.0145,0.0145,0.0159,0.0153,0.0144,0.0132,0.0134,0.0115,0.0106,0.0094,0.0061,0.0032,-0.0002,-0.0031,-0.005,-0.0046,-0.0089,-0.0054,-0.0028,-0.0074,-0.0075,-0.0077,-0.0128,-0.0134,-0.0051,-0.0051,-0.0051,0,0.0155,0.0173,0.016,0.0169,0.0172,0.0145,0.0159,0.0146,0.0121,0.0114,0.01,0.0039,0.0007,-0.0022,-0.0021,-0.0038,-0.0074,-0.0036,-0.0069,-0.0071,-0.0074,-0.0126,-0.0133,-0.0048,-0.0049,-0.0049,-0.0049,0,0.0183,0.0199,0.0207,0.0213,0.0213,0.022,0.0204,0.02,0.0185,0.0164,0.0134,0.0085,0.0049,0.0031,0.0007,-0.0024,-0.0047,-0.006,-0.0076,-0.0071,-0.0127,-0.0136,-0.0045,-0.0046,-0.0046,-0.0047,0,0,0.0202,0.0224,0.0227,0.0244,0.0239,0.0246,0.0249,0.0242,0.0246,0.0206,0.0197,0.0142,0.0109,0.0085,0.0044,0.0002,-0.0047,-0.003,-0.0034,-0.0075,-0.0156,-0.0142,-0.0151,-0.0065,-0.0066,-0.0067,-0.019,0,0.0228,0.0265,0.0266,0.0301,0.032,0.0305,0.0314,0.0302,0.0282,0.0265,0.0202,0.0177,0.0132,0.0116,0.0065,-0.0017,-0.0068,-0.0014,-0.0159,-0.0164,-0.0147,-0.0159,-0.0071,-0.0197,-0.0199,-0.02,-0.0201,0,0.0252,0.0278,0.032,0.0356,0.0363,0.0379,0.0391,0.0395,0.0359,0.034,0.0294,0.0245,0.0176,0.014,-0.0004,0.0034,-0.0056,-0.0126,-0.0132,-0.0142,-0.0166,-0.0203,-0.0218,-0.0217,-0.0215,-0.0214,-0.0213,0,0.0272,0.0316,0.0356,0.0366,0.0397,0.0416,0.0431,0.0416,0.0432,0.0386,0.0384,0.0288,0.0246,0.0125,-0.0015,-0.0012,-0.0179,-0.0193,-0.0272,-0.0273,-0.0272,-0.0269,-0.0301,-0.0301,-0.0301,-0.03,-0.03,0,0.0293,0.0326,0.0374,0.0394,0.0452,0.0456,0.0501,0.0496,0.0493,0.0513,0.0428,0.0412,0.0241,0.013,-0.0005,-0.0163,-0.0175,-0.0272,-0.0302,-0.0248,-0.0241,-0.0279,-0.0274,-0.0305,-0.0304,-0.0303,-0.0302,0,0.0301,0.0327,0.0385,0.0439,0.0463,0.0503,0.0566,0.0599,0.0583,0.0603,0.0595,0.0496,0.0354,0.0175,-0.0032,-0.0138,-0.0297,-0.0353,-0.0287,-0.031,-0.0367,-0.0358,-0.0453,-0.0453,-0.0454,-0.0454,-0.0454,0,0.0305,0.0335,0.0424,0.0474,0.0503,0.0568,0.0621,0.0641,0.0679,0.066,0.0674,0.0548,0.046,0.0183,-0.0015,-0.0283,-0.0317,-0.0408,-0.0386,-0.0362,-0.0382,-0.0373,-0.0364,-0.0455,-0.0455,-0.0455,-0.0455,0,0.0322,0.0358,0.0416,0.0521,0.0593,0.0673,0.0746,0.0782,0.0803,0.0785,0.0746,0.0599,0.0433,0.0205,-0.0009,-0.0198,-0.0351,-0.0413,-0.0414,-0.0394,-0.0366,-0.0383,-0.0374,-0.0457,-0.0456,-0.0456,-0.0456,0,0.0349,0.0396,0.0484,0.0577,0.0672,0.0763,0.0793,0.0843,0.0875,0.0849,0.083,0.0646,0.0527,0.0248,0.0056,-0.0133,-0.018,-0.0239,-0.0249,-0.025,-0.0152,-0.0085,-0.0116,0,0,0,0,0,0.0379,0.0445,0.0535,0.0646,0.0739,0.0794,0.0879,0.09,0.0914,0.0903,0.0871,0.072,0.0436,0.031,0.0126,0.0038,-0.0221,-0.0186,-0.0295,-0.0465,-0.0463,-0.0381,0,0,0,0,0,0,0.0405,0.0496,0.0546,0.0689,0.0766,0.0873,0.0931,0.0939,0.0932,0.0908,0.0765,0.0672,0.0398,0.0542,0.0121,0.0061,-0.0033,-0.0326,-0.033,-0.0466,-0.0464,-0.0463,-0.0377,0,0,0,0,0]}]]